Showing default

GAOFEN 8, 40701

Orbit data source: Space-Track

GAOFEN 8, 40701 is a payload satellite owned by PLA GAD (CN) in SSO that was launched on Fri, 26 Jun 2015 UTC via a CHANG ZHENG 4B launch vehicle from the Taiyaun Space Center, China (TSC). Payload-class satellites include a variety of spacecraft equipped with specific instruments for various scientific and technological missions. These include communications satellites like Starlink; space stations such as the ISS; scientific satellites like the Hubble; Earth observation satellites from companies like Planet Labs, Umbra, and HawkEye 360; GPS; miniature CubeSats for education and research; and military/defense satellites.

Loading next visibility...
Identifier
40701, 2015-030A
Orbit
SSO
Country
Flag of CNCN / PRC
Related business
Manufacturer
CAST
Mission
Operational Defense Imaging
Bus & Motor
YW-5?, Unknown motor
Mass
~2,400 kg wet, ~2,400 kg dry
Launch date (UTC)
2015-06-26 (11 years ago)
Launch vehicle
CHANG ZHENG 4B
Launch site
Taiyaun Space Center, China (TSC)
Object type
Payload
Rocket body
Debris
Shape & HBR
Box + 2 Pan, 4.0 m
Radar Cross Section
9.231 m², Large (>1 m²)

Expand to show TLE details & history
Last TLE update: 21 hours ago

TLE from 21 hours ago
0 GAOFEN 8
1 40701U 15030A   26172.55374683  .00017119  00000-0  35100-3 0  9991
2 40701  97.6910   6.1863 0009157 170.7942 189.3476 15.46090047612128
Epoch: 2026-06-21T13:17Z
TLE epoch observation values (Epoch: 2026-06-21T13:17:23.726Z)
Latitude
-0°
Longitude
-102.91492°
Altitude
437.446 km
Speed
7.646 km/s
True Right ascension
00h 24m 44s
True Declination
0° 00' 00"
Sunlit
Object was in daylight at epoch
Visualization orbit readout
Latitude
Unknown
Longitude
Unknown
Altitude
Unknown
Speed
Unknown
Apparent Right ascension
Unknown
Apparent Declination
Unknown
Sunlit
N/A
Visualization observer readout
Local Sidereal Time
21:37:33
Azimuth
Unknown
Elevation
Unknown
Doppler factor
Unknown
Orbital elements
Apogee altitude
431.351 km
Perigee altitude
418.891 km
Semi-major axis
6,803.258 km
Eccentricity
0.00092
Inclination
97.691°
RAAN
6.1863°
Arg. of periapsis
170.7942°
True anomaly
189.33058°
Mean anomaly
189.3476°
Eccentric anomaly
189.33909°
Mean motion
3.86783 °/min
Orbital period
93.08 mins
BSTAR
0.000351
Loading maneuver chart data...
Computing Atmospheric mass density...
Loading historical data...
Loading historical data...
Loading historical data...
Loading historical data...
Loading historical data...
Loading historical data...
Loading historical data...
Other satellites on launch #30 in the year 2015 (2015-06-26 UTC)

Documentation

Showing up to 5 results
|